This is the latest recevied weather packets stored in our database for station/object CE4ERM-13. If no packets are shown the sender has not sent any weather packets the latest 10 day(s).
| Time | Temp. | Humidity | Pressure | Rain* | Wind** | Luminosity | Snow |
|---|---|---|---|---|---|---|---|
| 1777693073 | 19.44° C | 47% | 1022.3 hPa | - | - | - | - |
| 1777692885 | 18.89° C | 46% | 1022.7 hPa | - | - | - | - |
| 1777692285 | 18.89° C | 46% | 1021.7 hPa | - | - | - | - |
| 1777691872 | 19.44° C | 47% | 1023.4 hPa | - | - | - | - |
| 1777691685 | 18.89° C | 46% | 1022.7 hPa | - | - | - | - |
| 1777691270 | 19.44° C | 46% | 1023.3 hPa | - | - | - | - |
| 1777690670 | 19.44° C | 47% | 1022.4 hPa | - | - | - | - |
| 1777690484 | 18.89° C | 48% | 1022.7 hPa | - | - | - | - |
| 1777690070 | 20° C | 46% | 1021.3 hPa | - | - | - | - |
| 1777689883 | 18.89° C | 49% | 1024.4 hPa | - | - | - | - |
| 1777689470 | 20° C | 47% | 1021.2 hPa | - | - | - | - |
| 1777689283 | 18.89° C | 49% | 1023.4 hPa | - | - | - | - |
| 1777688870 | 20° C | 47% | 1022.7 hPa | - | - | - | - |
| 1777688683 | 19.44° C | 48% | 1023.8 hPa | - | - | - | - |
| 1777688269 | 20° C | 46% | 1022.3 hPa | - | - | - | - |
| 1777688083 | 19.44° C | 48% | 1023.7 hPa | - | - | - | - |
| 1777687669 | 20° C | 46% | 1023.8 hPa | - | - | - | - |
| 1777687482 | 20° C | 46% | 1023.5 hPa | - | - | - | - |
| 1777687155 | 20° C | 47% | 1024.2 hPa | - | - | - | - |
| 1777687068 | 20° C | 46% | 1021.5 hPa | - | - | - | - |
| 1777686881 | 20° C | 47% | 1024.2 hPa | - | - | - | - |
| 1777686467 | 20.56° C | 46% | 1021.9 hPa | - | - | - | - |
| 1777686280 | 20° C | 47% | 1022.7 hPa | - | - | - | - |
| 1777685867 | 21.11° C | 46% | 1019.9 hPa | - | - | - | - |
| 1777685267 | 21.11° C | 46% | 1020.7 hPa | - | - | - | - |
* Rain since midnight (hover to see other rain measurements)
** Current wind speed in m/s (hover to see current wind gust speed)